When you browse on this site, cookies collect data to enhance your experience and personalize the content and advertising you see.
Visit our Privacy Policy to learn more. By continuing to use the site, you agree to this use of cookies and data.
  • In Sweden
  • List of Countries
  • For 7 days
  • Water Temperature
  • Satellite Maps
  • Weather Map
  • Weather Widgets
  • user-avatar
    Login

    Hourly Weather Uige

    Today, 17 July, Wednesday

    Time Temperature Precipitation Wind Pressure Humidity
    00:00 +18°C° 0 mm 0 mps 692 mmHg 83%
    01:00 +17°C° 0 mm 0 mps 692 mmHg 93%
    02:00 +17°C° 0 mm 0 mps 692 mmHg 95%
    03:00 +17°C° 0 mm 0 mps 692 mmHg 96%
    04:00 +17°C° 0 mm 0 mps 691 mmHg 98%
    05:00 +17°C° 0 mm 0 mps 692 mmHg 96%
    06:00 +17°C° 0 mm 0 mps 692 mmHg 93%
    07:00 +18°C° 0 mm 0 mps 693 mmHg 91%
    08:00 +22°C° 0 mm 0 mps 694 mmHg 73%
    09:00 +26°C° 0 mm 0 mps 694 mmHg 55%
    10:00 +31°C° 0 mm 0 mps 695 mmHg 37%
    11:00 +34°C° 0 mm 1 mps 694 mmHg 32%
    12:00 +36°C° 0 mm 1 mps 694 mmHg 27%
    13:00 +37°C° 0 mm 1 mps 693 mmHg 21%
    14:00 +37°C° 0 mm 1 mps 693 mmHg 21%
    15:00 +36°C° 0 mm 1 mps 692 mmHg 21%
    16:00 +35°C° 0 mm 1 mps 691 mmHg 21%
    17:00 +33°C° 0 mm 1 mps 691 mmHg 26%
    18:00 +30°C° 0 mm 1 mps 691 mmHg 31%
    19:00 +28°C° 0 mm 1 mps 692 mmHg 36%
    20:00 +27°C° 0 mm 1 mps 692 mmHg 41%
    21:00 +23°C° 0 mm 0 mps 692 mmHg 46%
    22:00 +22°C° 0 mm 0 mps 692 mmHg 51%
    23:00 +21°C° 0 mm 0 mps 692 mmHg 59%

    Tomorrow, 18 July, Thursday

    Time Temperature Precipitation Wind Pressure Humidity
    00:00 +19°C° 0 mm 0 mps 692 mmHg 67%
    01:00 +18°C° 0 mm 0 mps 691 mmHg 75%
    02:00 +18°C° 0 mm 0 mps 691 mmHg 79%
    03:00 +17°C° 0 mm 0 mps 691 mmHg 84%
    04:00 +19°C° 0 mm 1 mps 691 mmHg 88%
    05:00 +19°C° 0 mm 1 mps 691 mmHg 85%
    06:00 +20°C° 0 mm 1 mps 691 mmHg 83%
    07:00 +20°C° 0 mm 1 mps 692 mmHg 80%
    08:00 +24°C° 0 mm 1 mps 693 mmHg 62%
    09:00 +28°C° 0 mm 2 mps 693 mmHg 44%
    10:00 +34°C° 0 mm 2 mps 694 mmHg 26%
    11:00 +35°C° 0 mm 2 mps 694 mmHg 22%
    12:00 +37°C° 0 mm 2 mps 693 mmHg 18%
    13:00 +39°C° 0 mm 2 mps 692 mmHg 14%
    14:00 +38°C° 0 mm 2 mps 692 mmHg 14%
    15:00 +38°C° 0 mm 2 mps 691 mmHg 14%
    16:00 +37°C° 0 mm 1 mps 690 mmHg 14%
    17:00 +33°C° 0 mm 1 mps 690 mmHg 18%
    18:00 +30°C° 0 mm 1 mps 690 mmHg 23%
    19:00 +27°C° 0 mm 1 mps 690 mmHg 27%
    20:00 +25°C° 0 mm 1 mps 691 mmHg 37%
    21:00 +23°C° 0 mm 1 mps 691 mmHg 46%
    22:00 +22°C° 0 mm 1 mps 691 mmHg 56%
    23:00 +21°C° 0 mm 1 mps 691 mmHg 67%

    Day after tomorrow, 19 July, Friday

    Time Temperature Precipitation Wind Pressure Humidity
    00:00 +19°C° 0 mm 1 mps 691 mmHg 77%
    01:00 +18°C° 0 mm 1 mps 691 mmHg 87%
    02:00 +16°C° 0 mm 0 mps 691 mmHg 91%
    03:00 +15°C° 0 mm 0 mps 691 mmHg 94%
    04:00 +15°C° 0 mm 0 mps 690 mmHg 97%
    05:00 +15°C° 0 mm 0 mps 691 mmHg 95%
    06:00 +16°C° 0 mm 0 mps 691 mmHg 92%
    07:00 +16°C° 0 mm 0 mps 692 mmHg 90%
    08:00 +22°C° 0 mm 1 mps 693 mmHg 72%
    09:00 +26°C° 0 mm 1 mps 693 mmHg 55%
    10:00 +30°C° 0 mm 1 mps 694 mmHg 37%
    11:00 +33°C° 0 mm 1 mps 693 mmHg 30%
    12:00 +35°C° 0 mm 1 mps 693 mmHg 24%
    13:00 +37°C° 0 mm 1 mps 692 mmHg 17%
    14:00 +38°C° 0 mm 2 mps 692 mmHg 18%
    15:00 +37°C° 0 mm 2 mps 691 mmHg 19%
    16:00 +36°C° 0 mm 2 mps 690 mmHg 19%
    17:00 +32°C° 0 mm 2 mps 690 mmHg 28%
    18:00 +28°C° 0 mm 1 mps 690 mmHg 37%
    19:00 +25°C° 0 mm 1 mps 690 mmHg 45%
    20:00 +24°C° 0 mm 1 mps 690 mmHg 51%
    21:00 +21°C° 0 mm 0 mps 691 mmHg 56%
    22:00 +19°C° 0 mm 0 mps 691 mmHg 62%
    23:00 +18°C° 0 mm 0 mps 691 mmHg 69%

    20 July, Saturday

    Time Temperature Precipitation Wind Pressure Humidity
    00:00 +17°C° 0 mm 0 mps 691 mmHg 76%
    01:00 +16°C° 0 mm 0 mps 691 mmHg 84%
    02:00 +15°C° 0 mm 0 mps 691 mmHg 88%
    03:00 +15°C° 0 mm 0 mps 690 mmHg 92%
    04:00 +15°C° 0 mm 1 mps 690 mmHg 95%
    05:00 +15°C° 0 mm 0 mps 691 mmHg 93%
    06:00 +15°C° 0 mm 0 mps 692 mmHg 91%
    07:00 +16°C° 0 mm 0 mps 692 mmHg 89%
    08:00 +20°C° 0 mm 0 mps 693 mmHg 72%
    09:00 +26°C° 0 mm 1 mps 694 mmHg 55%
    10:00 +31°C° 0 mm 1 mps 694 mmHg 38%
    11:00 +32°C° 0 mm 1 mps 694 mmHg 32%
    12:00 +34°C° 0 mm 1 mps 693 mmHg 26%
    13:00 +36°C° 0 mm 2 mps 692 mmHg 20%
    14:00 +36°C° 0 mm 2 mps 692 mmHg 21%
    15:00 +36°C° 0 mm 2 mps 691 mmHg 21%
    16:00 +35°C° 0 mm 3 mps 691 mmHg 21%
    17:00 +31°C° 0 mm 2 mps 690 mmHg 29%
    18:00 +28°C° 0 mm 1 mps 690 mmHg 38%
    19:00 +25°C° 0 mm 1 mps 690 mmHg 46%
    20:00 +23°C° 0 mm 1 mps 691 mmHg 53%
    21:00 +22°C° 0 mm 1 mps 691 mmHg 61%
    22:00 +20°C° 0 mm 1 mps 692 mmHg 68%
    23:00 +19°C° 0 mm 1 mps 692 mmHg 76%

    21 July, Sunday

    Time Temperature Precipitation Wind Pressure Humidity
    00:00 +16°C° 0 mm 0 mps 692 mmHg 83%
    01:00 +15°C° 0 mm 0 mps 692 mmHg 91%
    02:00 +15°C° 0 mm 0 mps 692 mmHg 93%
    03:00 +14°C° 0 mm 0 mps 691 mmHg 95%
    04:00 +14°C° 0 mm 0 mps 691 mmHg 97%
    05:00 +15°C° 0 mm 1 mps 692 mmHg 96%
    06:00 +16°C° 0 mm 1 mps 692 mmHg 95%
    07:00 +16°C° 0 mm 1 mps 693 mmHg 94%
    08:00 +21°C° 0 mm 1 mps 694 mmHg 77%
    09:00 +24°C° 0 mm 1 mps 694 mmHg 61%
    10:00 +28°C° 0 mm 1 mps 695 mmHg 45%
    11:00 +30°C° 0 mm 1 mps 694 mmHg 39%
    12:00 +32°C° 0 mm 2 mps 694 mmHg 33%
    13:00 +34°C° 0 mm 2 mps 693 mmHg 28%
    14:00 +34°C° 0 mm 2 mps 693 mmHg 27%
    15:00 +34°C° 0 mm 2 mps 692 mmHg 27%
    16:00 +32°C° 0 mm 2 mps 691 mmHg 26%
    17:00 +30°C° 0 mm 2 mps 691 mmHg 32%
    18:00 +27°C° 0 mm 2 mps 691 mmHg 38%
    19:00 +25°C° 0 mm 2 mps 691 mmHg 44%
    20:00 +23°C° 0 mm 1 mps 692 mmHg 52%
    21:00 +21°C° 0 mm 1 mps 692 mmHg 59%
    22:00 +18°C° 0 mm 0 mps 692 mmHg 66%
    23:00 +17°C° 0 mm 0 mps 692 mmHg 71%

    22 July, Monday

    Time Temperature Precipitation Wind Pressure Humidity
    00:00 +16°C° 0 mm 0 mps 692 mmHg 77%
    01:00 +18°C° 0 mm 1 mps 692 mmHg 83%
    02:00 +16°C° 0 mm 1 mps 692 mmHg 87%
    03:00 +15°C° 0 mm 1 mps 692 mmHg 91%
    04:00 +15°C° 0 mm 1 mps 691 mmHg 95%
    05:00 +15°C° 0 mm 1 mps 692 mmHg 93%
    06:00 +15°C° 0 mm 1 mps 692 mmHg 92%
    07:00 +15°C° 0 mm 1 mps 693 mmHg 91%
    08:00 +20°C° 0 mm 1 mps 693 mmHg 72%
    09:00 +24°C° 0 mm 1 mps 694 mmHg 54%
    10:00 +28°C° 0 mm 2 mps 695 mmHg 35%
    11:00 +30°C° 0 mm 1 mps 694 mmHg 31%
    12:00 +32°C° 0 mm 1 mps 694 mmHg 27%
    13:00 +34°C° 0 mm 1 mps 693 mmHg 23%
    14:00 +35°C° 0 mm 2 mps 692 mmHg 23%
    15:00 +35°C° 0 mm 2 mps 692 mmHg 23%
    16:00 +34°C° 0 mm 2 mps 691 mmHg 23%
    17:00 +30°C° 0 mm 2 mps 691 mmHg 30%
    18:00 +27°C° 0 mm 2 mps 691 mmHg 36%
    19:00 +24°C° 0 mm 1 mps 691 mmHg 43%
    20:00 +23°C° 0 mm 1 mps 691 mmHg 49%
    21:00 +22°C° 0 mm 1 mps 691 mmHg 55%
    22:00 +20°C° 0 mm 1 mps 692 mmHg 61%
    23:00 +19°C° 0 mm 1 mps 691 mmHg 66%
    Show more